"Sample Date","Sample Time","Sample Value","Units","Flow Rate","Number Channels","Micron Size 0","Counts/Channel 0","Micron Size 1","Counts/Channel 1","Micron Size 2","Counts/Channel 2","Micron Size 3","Counts/Channel 3","Micron Size 4","Counts/Channel 4","Micron Size 5","Counts/Channel 5","Micron Size 6","Counts/Channel 6","Micron Size 7","Counts/Channel 7","Micron Size 8","Counts/Channel 8","Micron Size 9","Counts/Channel 9","Micron Size 10","Counts/Channel 10","Micron Size 11","Counts/Channel 11","Micron Size 12","Counts/Channel 12","Micron Size 13","Counts/Channel 13","Micron Size 14","Counts/Channel 14","Micron Size 15","Counts/Channel 15","Micron Size 16","Counts/Channel 16","Micron Size 17","Counts/Channel 17","Micron Size 18","Counts/Channel 18","Micron Size 19","Counts/Channel 19","Micron Size 20","Counts/Channel 20","Micron Size 21","Counts/Channel 21","Micron Size 22","Counts/Channel 22","Micron Size 23","Counts/Channel 23","Micron Size 24","Counts/Channel 24","Micron Size 25","Counts/Channel 25","Micron Size 26","Counts/Channel 26","Micron Size 27","Counts/Channel 27","Micron Size 28","Counts/Channel 28","Micron Size 29","Counts/Channel 29","Micron Size 30","Counts/Channel 30","Micron Size 31","Counts/Channel 31"
"05/11/08","04:00:04",5722.000,"cc",28343.553,6,0.100,4945.000,0.200,706.000,0.300,58.000,0.500,13.000,1.000,0,5.000,0
"05/11/08","04:00:10",4015.000,"cc",28352.680,6,0.100,3475.000,0.200,488.000,0.300,39.000,0.500,12.000,1.000,1.000,5.000,0
"05/11/08","04:00:16",4542.000,"cc",28263.477,6,0.100,3940.000,0.200,553.000,0.300,41.000,0.500,7.000,1.000,1.000,5.000,0
"05/11/08","04:00:22",3969.000,"cc",28297.998,6,0.100,3476.000,0.200,444.000,0.300,39.000,0.500,9.000,1.000,1.000,5.000,0
"05/11/08","04:00:28",6715.000,"cc",28353.658,6,0.100,5848.000,0.200,820.000,0.300,41.000,0.500,6.000,1.000,0,5.000,0
"05/11/08","04:00:34",3341.000,"cc",28318.023,6,0.100,2865.000,0.200,434.000,0.300,37.000,0.500,5.000,1.000,0,5.000,0
"05/11/08","04:00:40",3353.000,"cc",28317.965,6,0.100,2885.000,0.200,419.000,0.300,41.000,0.500,7.000,1.000,1.000,5.000,0
"05/11/08","04:00:46",4775.000,"cc",28273.582,6,0.100,4176.000,0.200,555.000,0.300,36.000,0.500,8.000,1.000,0,5.000,0
"05/11/08","04:00:52",5562.000,"cc",28307.213,6,0.100,4816.000,0.200,683.000,0.300,55.000,0.500,8.000,1.000,0,5.000,0
"05/11/08","04:00:58",5613.000,"cc",28327.027,6,0.100,4861.000,0.200,697.000,0.300,53.000,0.500,2.000,1.000,0,5.000,0
"05/11/08","04:01:04",6214.000,"cc",28309.565,6,0.100,5414.000,0.200,732.000,0.300,60.000,0.500,8.000,1.000,0,5.000,0
"05/11/08","04:01:10",4566.000,"cc",28360.523,6,0.100,3935.000,0.200,584.000,0.300,42.000,0.500,5.000,1.000,0,5.000,0
"05/11/08","04:01:16",3953.000,"cc",28374.908,6,0.100,3412.000,0.200,491.000,0.300,41.000,0.500,9.000,1.000,0,5.000,0
"05/11/08","04:01:22",3995.000,"cc",28259.012,6,0.100,3451.000,0.200,485.000,0.300,46.000,0.500,12.000,1.000,1.000,5.000,0
"05/11/08","04:01:28",3318.000,"cc",28371.420,6,0.100,2856.000,0.200,427.000,0.300,31.000,0.500,4.000,1.000,0,5.000,0
"05/11/08","04:01:34",2954.000,"cc",28312.637,6,0.100,2501.000,0.200,402.000,0.300,48.000,0.500,2.000,1.000,1.000,5.000,0
"05/11/08","04:01:40",2810.000,"cc",28310.494,6,0.100,2369.000,0.200,395.000,0.300,39.000,0.500,7.000,1.000,0,5.000,0
"05/11/08","04:01:46",4050.000,"cc",28330.918,6,0.100,3460.000,0.200,532.000,0.300,48.000,0.500,10.000,1.000,0,5.000,0
"05/11/08","04:01:52",3615.000,"cc",28329.350,6,0.100,3057.000,0.200,501.000,0.300,42.000,0.500,15.000,1.000,0,5.000,0
"05/11/08","04:01:58",3059.000,"cc",28294.352,6,0.100,2603.000,0.200,414.000,0.300,37.000,0.500,5.000,1.000,0,5.000,0
"05/11/08","04:02:04",3273.000,"cc",28289.000,6,0.100,2770.000,0.200,447.000,0.300,51.000,0.500,5.000,1.000,0,5.000,0
"05/11/08","04:02:10",4239.000,"cc",28397.725,6,0.100,3626.000,0.200,553.000,0.300,53.000,0.500,7.000,1.000,0,5.000,0
"05/11/08","04:02:16",3350.000,"cc",28289.176,6,0.100,2851.000,0.200,444.000,0.300,46.000,0.500,9.000,1.000,0,5.000,0
"05/11/08","04:02:22",5201.000,"cc",28320.926,6,0.100,4519.000,0.200,612.000,0.300,60.000,0.500,10.000,1.000,0,5.000,0
"05/11/08","04:02:28",4107.000,"cc",28310.707,6,0.100,3514.000,0.200,529.000,0.300,55.000,0.500,8.000,1.000,1.000,5.000,0
"05/11/08","04:02:34",3873.000,"cc",28292.750,6,0.100,3295.000,0.200,523.000,0.300,48.000,0.500,7.000,1.000,0,5.000,0
"05/11/08","04:02:40",6341.000,"cc",28290.955,6,0.100,5405.000,0.200,850.000,0.300,78.000,0.500,8.000,1.000,0,5.000,0
"05/11/08","04:02:46",5403.000,"cc",28332.848,6,0.100,4597.000,0.200,715.000,0.300,73.000,0.500,18.000,1.000,0,5.000,0
"05/11/08","04:02:52",9879.000,"cc",28304.668,6,0.100,8544.000,0.200,1251.000,0.300,67.000,0.500,17.000,1.000,0,5.000,0
"05/11/08","04:02:58",8934.000,"cc",28299.887,6,0.100,7746.000,0.200,1100.000,0.300,76.000,0.500,12.000,1.000,0,5.000,0
"05/11/08","04:03:04",5309.000,"cc",28338.033,6,0.100,4551.000,0.200,706.000,0.300,43.000,0.500,9.000,1.000,0,5.000,0
"05/11/08","04:03:10",6441.000,"cc",28370.971,6,0.100,5549.000,0.200,835.000,0.300,53.000,0.500,3.000,1.000,1.000,5.000,0
"05/11/08","04:03:16",5245.000,"cc",28308.174,6,0.100,4496.000,0.200,690.000,0.300,52.000,0.500,7.000,1.000,0,5.000,0
"05/11/08","04:03:22",14473.000,"cc",28338.510,6,0.100,12559.000,0.200,1811.000,0.300,94.000,0.500,9.000,1.000,0,5.000,0
"05/11/08","04:03:28",9923.000,"cc",28316.787,6,0.100,8586.000,0.200,1256.000,0.300,75.000,0.500,5.000,1.000,1.000,5.000,0
"05/11/08","04:03:34",11501.000,"cc",28286.197,6,0.100,9966.000,0.200,1451.000,0.300,76.000,0.500,6.000,1.000,2.000,5.000,0
"05/11/08","04:03:40",8253.000,"cc",28332.684,6,0.100,7179.000,0.200,1004.000,0.300,58.000,0.500,11.000,1.000,1.000,5.000,0
"05/11/08","04:03:46",4864.000,"cc",28286.727,6,0.100,4183.000,0.200,626.000,0.300,51.000,0.500,3.000,1.000,1.000,5.000,0
"05/11/08","04:03:52",7652.000,"cc",28333.658,6,0.100,6682.000,0.200,902.000,0.300,62.000,0.500,6.000,1.000,0,5.000,0
"05/11/08","04:03:58",4714.000,"cc",28314.461,6,0.100,4033.000,0.200,619.000,0.300,57.000,0.500,5.000,1.000,0,5.000,0
"05/11/08","04:04:04",5300.000,"cc",28277.037,6,0.100,4533.000,0.200,712.000,0.300,46.000,0.500,9.000,1.000,0,5.000,0
"05/11/08","04:04:10",6613.000,"cc",28309.965,6,0.100,5655.000,0.200,875.000,0.300,79.000,0.500,4.000,1.000,0,5.000,0
"05/11/08","04:04:16",5022.000,"cc",28354.908,6,0.100,4294.000,0.200,659.000,0.300,58.000,0.500,11.000,1.000,0,5.000,0
"05/11/08","04:04:22",4456.000,"cc",28350.873,6,0.100,3765.000,0.200,640.000,0.300,40.000,0.500,11.000,1.000,0,5.000,0
"05/11/08","04:04:28",5274.000,"cc",28342.596,6,0.100,4513.000,0.200,709.000,0.300,46.000,0.500,6.000,1.000,0,5.000,0
"05/11/08","04:04:34",3991.000,"cc",28320.775,6,0.100,3415.000,0.200,539.000,0.300,31.000,0.500,6.000,1.000,0,5.000,0
"05/11/08","04:04:40",4042.000,"cc",28235.594,6,0.100,3435.000,0.200,548.000,0.300,53.000,0.500,6.000,1.000,0,5.000,0
"05/11/08","04:04:46",3925.000,"cc",28300.106,6,0.100,3339.000,0.200,525.000,0.300,57.000,0.500,4.000,1.000,0,5.000,0
"05/11/08","04:04:52",4924.000,"cc",28346.260,6,0.100,4181.000,0.200,666.000,0.300,65.000,0.500,11.000,1.000,1.000,5.000,0
"05/11/08","04:04:58",5195.000,"cc",28317.799,6,0.100,4380.000,0.200,755.000,0.300,55.000,0.500,4.000,1.000,1.000,5.000,0
"05/11/08","04:05:04",6411.000,"cc",28316.834,6,0.100,5511.000,0.200,849.000,0.300,43.000,0.500,6.000,1.000,2.000,5.000,0
"05/11/08","04:05:10",6187.000,"cc",28325.137,6,0.100,5310.000,0.200,811.000,0.300,58.000,0.500,8.000,1.000,0,5.000,0
"05/11/08","04:05:16",5783.000,"cc",28347.574,6,0.100,4961.000,0.200,772.000,0.300,46.000,0.500,4.000,1.000,0,5.000,0
"05/11/08","04:05:22",4319.000,"cc",28296.981,6,0.100,3652.000,0.200,611.000,0.300,46.000,0.500,9.000,1.000,1.000,5.000,0
"05/11/08","04:05:28",4819.000,"cc",28315.242,6,0.100,4130.000,0.200,637.000,0.300,47.000,0.500,5.000,1.000,0,5.000,0
"05/11/08","04:05:34",3937.000,"cc",28326.279,6,0.100,3322.000,0.200,567.000,0.300,40.000,0.500,8.000,1.000,0,5.000,0
"05/11/08","04:05:40",3767.000,"cc",28320.721,6,0.100,3240.000,0.200,485.000,0.300,36.000,0.500,6.000,1.000,0,5.000,0
"05/11/08","04:05:46",3291.000,"cc",28285.650,6,0.100,2760.000,0.200,481.000,0.300,43.000,0.500,7.000,1.000,0,5.000,0
"05/11/08","04:05:52",2600.000,"cc",28303.065,6,0.100,2190.000,0.200,373.000,0.300,31.000,0.500,6.000,1.000,0,5.000,0
"05/11/08","04:05:58",2495.000,"cc",28332.908,6,0.100,2072.000,0.200,377.000,0.300,40.000,0.500,6.000,1.000,0,5.000,0
"05/11/08","04:06:04",2457.000,"cc",28396.979,6,0.100,2063.000,0.200,361.000,0.300,29.000,0.500,4.000,1.000,0,5.000,0
"05/11/08","04:06:10",2534.000,"cc",28321.346,6,0.100,2144.000,0.200,340.000,0.300,43.000,0.500,7.000,1.000,0,5.000,0
"05/11/08","04:06:16",2637.000,"cc",28273.065,6,0.100,2267.000,0.200,327.000,0.300,40.000,0.500,3.000,1.000,0,5.000,0
"05/11/08","04:06:22",2583.000,"cc",28304.334,6,0.100,2169.000,0.200,379.000,0.300,30.000,0.500,5.000,1.000,0,5.000,0
"05/11/08","04:06:28",2078.000,"cc",28309.262,6,0.100,1754.000,0.200,276.000,0.300,37.000,0.500,11.000,1.000,0,5.000,0
"05/11/08","04:06:34",2482.000,"cc",28290.459,6,0.100,2074.000,0.200,360.000,0.300,42.000,0.500,6.000,1.000,0,5.000,0
"05/11/08","04:06:40",2921.000,"cc",28278.139,6,0.100,2443.000,0.200,434.000,0.300,38.000,0.500,5.000,1.000,1.000,5.000,0
"05/11/08","04:06:46",3324.000,"cc",28313.766,6,0.100,2798.000,0.200,471.000,0.300,48.000,0.500,7.000,1.000,0,5.000,0
"05/11/08","04:06:52",3446.000,"cc",28371.664,6,0.100,2906.000,0.200,483.000,0.300,48.000,0.500,8.000,1.000,1.000,5.000,0
"05/11/08","04:06:58",2658.000,"cc",28349.207,6,0.100,2229.000,0.200,388.000,0.300,36.000,0.500,5.000,1.000,0,5.000,0
"05/11/08","04:07:04",2645.000,"cc",28328.930,6,0.100,2231.000,0.200,370.000,0.300,38.000,0.500,5.000,1.000,1.000,5.000,0
"05/11/08","04:07:10",2878.000,"cc",28319.744,6,0.100,2391.000,0.200,439.000,0.300,40.000,0.500,8.000,1.000,0,5.000,0
"05/11/08","04:07:16",3930.000,"cc",28294.811,6,0.100,3349.000,0.200,520.000,0.300,53.000,0.500,7.000,1.000,1.000,5.000,0
"05/11/08","04:07:22",5756.000,"cc",28336.900,6,0.100,4932.000,0.200,753.000,0.300,66.000,0.500,5.000,1.000,0,5.000,0
"05/11/08","04:07:28",3214.000,"cc",28258.158,6,0.100,2737.000,0.200,435.000,0.300,34.000,0.500,7.000,1.000,1.000,5.000,0
"05/11/08","04:07:34",5131.000,"cc",28314.873,6,0.100,4367.000,0.200,703.000,0.300,58.000,0.500,3.000,1.000,0,5.000,0
"05/11/08","04:07:40",3995.000,"cc",28357.070,6,0.100,3368.000,0.200,561.000,0.300,57.000,0.500,9.000,1.000,0,5.000,0
"05/11/08","04:07:46",6589.000,"cc",28351.596,6,0.100,5640.000,0.200,870.000,0.300,69.000,0.500,10.000,1.000,0,5.000,0
"05/11/08","04:07:52",7374.000,"cc",28351.080,6,0.100,6306.000,0.200,979.000,0.300,78.000,0.500,11.000,1.000,0,5.000,0
"05/11/08","04:07:58",4078.000,"cc",28260.473,6,0.100,3504.000,0.200,524.000,0.300,48.000,0.500,2.000,1.000,0,5.000,0
"05/11/08","04:08:04",4471.000,"cc",28324.668,6,0.100,3824.000,0.200,588.000,0.300,55.000,0.500,4.000,1.000,0,5.000,0
"05/11/08","04:08:10",3731.000,"cc",28315.619,6,0.100,3159.000,0.200,510.000,0.300,54.000,0.500,7.000,1.000,1.000,5.000,0
"05/11/08","04:08:16",4426.000,"cc",28285.707,6,0.100,3777.000,0.200,604.000,0.300,41.000,0.500,3.000,1.000,1.000,5.000,0
"05/11/08","04:08:22",4235.000,"cc",28342.633,6,0.100,3659.000,0.200,532.000,0.300,38.000,0.500,6.000,1.000,0,5.000,0
"05/11/08","04:08:28",8494.000,"cc",28307.406,6,0.100,7372.000,0.200,1048.000,0.300,62.000,0.500,12.000,1.000,0,5.000,0
"05/11/08","04:08:34",5452.000,"cc",28253.982,6,0.100,4691.000,0.200,694.000,0.300,61.000,0.500,5.000,1.000,1.000,5.000,0
"05/11/08","04:08:40",4837.000,"cc",28284.291,6,0.100,4148.000,0.200,632.000,0.300,52.000,0.500,5.000,1.000,0,5.000,0
"05/11/08","04:08:46",5539.000,"cc",28424.033,6,0.100,4752.000,0.200,725.000,0.300,57.000,0.500,5.000,1.000,0,5.000,0
"05/11/08","04:08:52",16513.000,"cc",28293.510,6,0.100,14460.000,0.200,1955.000,0.300,88.000,0.500,10.000,1.000,0,5.000,0
"05/11/08","04:08:58",12635.000,"cc",28296.463,6,0.100,11122.000,0.200,1432.000,0.300,71.000,0.500,8.000,1.000,2.000,5.000,0
"05/11/08","04:09:04",8197.000,"cc",28324.561,6,0.100,7113.000,0.200,1015.000,0.300,59.000,0.500,9.000,1.000,1.000,5.000,0
"05/11/08","04:09:10",6178.000,"cc",28357.440,6,0.100,5344.000,0.200,774.000,0.300,49.000,0.500,11.000,1.000,0,5.000,0
"05/11/08","04:09:16",6562.000,"cc",28297.582,6,0.100,5685.000,0.200,803.000,0.300,71.000,0.500,3.000,1.000,0,5.000,0
"05/11/08","04:09:22",9286.000,"cc",28326.391,6,0.100,8111.000,0.200,1102.000,0.300,68.000,0.500,5.000,1.000,0,5.000,0
"05/11/08","04:09:28",9053.000,"cc",28288.025,6,0.100,7858.000,0.200,1121.000,0.300,65.000,0.500,9.000,1.000,0,5.000,0
"05/11/08","04:09:34",11583.000,"cc",28344.086,6,0.100,10127.000,0.200,1379.000,0.300,67.000,0.500,9.000,1.000,1.000,5.000,0
"05/11/08","04:09:40",6646.000,"cc",28278.834,6,0.100,5812.000,0.200,776.000,0.300,52.000,0.500,6.000,1.000,0,5.000,0
"05/11/08","04:09:46",5044.000,"cc",28337.107,6,0.100,4364.000,0.200,612.000,0.300,59.000,0.500,8.000,1.000,1.000,5.000,0
"05/11/08","04:09:52",4546.000,"cc",28338.309,6,0.100,3926.000,0.200,572.000,0.300,43.000,0.500,4.000,1.000,1.000,5.000,0
"05/11/08","04:09:58",10155.000,"cc",28255.121,6,0.100,8719.000,0.200,1322.000,0.300,98.000,0.500,15.000,1.000,1.000,5.000,0
"05/11/08","04:10:04",6884.000,"cc",28300.053,6,0.100,5999.000,0.200,808.000,0.300,64.000,0.500,13.000,1.000,0,5.000,0
"05/11/08","04:10:10",4501.000,"cc",28340.104,6,0.100,3846.000,0.200,591.000,0.300,51.000,0.500,11.000,1.000,2.000,5.000,0
"05/11/08","04:10:16",3158.000,"cc",28285.350,6,0.100,2716.000,0.200,395.000,0.300,41.000,0.500,5.000,1.000,1.000,5.000,0
"05/11/08","04:10:22",3025.000,"cc",28372.246,6,0.100,2593.000,0.200,385.000,0.300,39.000,0.500,8.000,1.000,0,5.000,0
"05/11/08","04:10:28",3952.000,"cc",28313.531,6,0.100,3390.000,0.200,521.000,0.300,40.000,0.500,1.000,1.000,0,5.000,0
"05/11/08","04:10:34",4758.000,"cc",28354.639,6,0.100,4144.000,0.200,569.000,0.300,42.000,0.500,3.000,1.000,0,5.000,0
"05/11/08","04:10:40",6449.000,"cc",28300.131,6,0.100,5606.000,0.200,782.000,0.300,48.000,0.500,12.000,1.000,1.000,5.000,0
"05/11/08","04:10:46",9091.000,"cc",28263.971,6,0.100,7877.000,0.200,1122.000,0.300,85.000,0.500,7.000,1.000,0,5.000,0
"05/11/08","04:10:52",8273.000,"cc",28311.176,6,0.100,7248.000,0.200,952.000,0.300,65.000,0.500,8.000,1.000,0,5.000,0
"05/11/08","04:10:58",11917.000,"cc",28334.080,6,0.100,10453.000,0.200,1374.000,0.300,78.000,0.500,12.000,1.000,0,5.000,0
"05/11/08","04:11:04",10472.000,"cc",28292.256,6,0.100,9150.000,0.200,1222.000,0.300,89.000,0.500,11.000,1.000,0,5.000,0
"05/11/08","04:11:10",4997.000,"cc",28276.016,6,0.100,4337.000,0.200,608.000,0.300,43.000,0.500,9.000,1.000,0,5.000,0
"05/11/08","04:11:16",7640.000,"cc",28376.738,6,0.100,6638.000,0.200,930.000,0.300,60.000,0.500,12.000,1.000,0,5.000,0
"05/11/08","04:11:22",10465.000,"cc",28312.264,6,0.100,9078.000,0.200,1290.000,0.300,84.000,0.500,13.000,1.000,0,5.000,0
"05/11/08","04:11:28",5491.000,"cc",28282.936,6,0.100,4776.000,0.200,659.000,0.300,51.000,0.500,5.000,1.000,0,5.000,0
"05/11/08","04:11:34",4955.000,"cc",28297.457,6,0.100,4302.000,0.200,600.000,0.300,48.000,0.500,5.000,1.000,0,5.000,0
"05/11/08","04:11:40",2931.000,"cc",28354.996,6,0.100,2517.000,0.200,379.000,0.300,32.000,0.500,3.000,1.000,0,5.000,0
"05/11/08","04:11:46",6604.000,"cc",28266.992,6,0.100,5773.000,0.200,771.000,0.300,52.000,0.500,8.000,1.000,0,5.000,0
"05/11/08","04:11:52",6277.000,"cc",28369.145,6,0.100,5439.000,0.200,752.000,0.300,74.000,0.500,10.000,1.000,2.000,5.000,0
"05/11/08","04:11:58",5905.000,"cc",28268.408,6,0.100,5036.000,0.200,790.000,0.300,63.000,0.500,16.000,1.000,0,5.000,0
"05/11/08","04:12:04",5463.000,"cc",28377.676,6,0.100,4695.000,0.200,689.000,0.300,60.000,0.500,17.000,1.000,2.000,5.000,0
"05/11/08","04:12:10",4038.000,"cc",28323.590,6,0.100,3466.000,0.200,515.000,0.300,49.000,0.500,8.000,1.000,0,5.000,0
"05/11/08","04:12:16",4051.000,"cc",28320.186,6,0.100,3502.000,0.200,510.000,0.300,35.000,0.500,4.000,1.000,0,5.000,0
"05/11/08","04:12:22",4247.000,"cc",28324.012,6,0.100,3682.000,0.200,523.000,0.300,36.000,0.500,6.000,1.000,0,5.000,0
"05/11/08","04:12:28",2776.000,"cc",28279.379,6,0.100,2397.000,0.200,337.000,0.300,36.000,0.500,6.000,1.000,0,5.000,0
"05/11/08","04:12:34",2645.000,"cc",28313.793,6,0.100,2272.000,0.200,331.000,0.300,35.000,0.500,7.000,1.000,0,5.000,0
"05/11/08","04:12:40",2746.000,"cc",28376.803,6,0.100,2342.000,0.200,355.000,0.300,43.000,0.500,5.000,1.000,1.000,5.000,0
"05/11/08","04:12:46",5856.000,"cc",28258.787,6,0.100,5104.000,0.200,688.000,0.300,55.000,0.500,9.000,1.000,0,5.000,0
"05/11/08","04:12:52",7520.000,"cc",28308.570,6,0.100,6494.000,0.200,929.000,0.300,79.000,0.500,16.000,1.000,2.000,5.000,0
"05/11/08","04:12:58",4107.000,"cc",28345.779,6,0.100,3531.000,0.200,515.000,0.300,49.000,0.500,11.000,1.000,1.000,5.000,0
"05/11/08","04:13:04",4926.000,"cc",28315.326,6,0.100,4276.000,0.200,607.000,0.300,32.000,0.500,11.000,1.000,0,5.000,0
"05/11/08","04:13:10",6659.000,"cc",28321.856,6,0.100,5779.000,0.200,817.000,0.300,55.000,0.500,8.000,1.000,0,5.000,0
"05/11/08","04:13:16",7548.000,"cc",28303.857,6,0.100,6628.000,0.200,860.000,0.300,51.000,0.500,8.000,1.000,1.000,5.000,0
"05/11/08","04:13:22",6235.000,"cc",28277.221,6,0.100,5449.000,0.200,733.000,0.300,45.000,0.500,8.000,1.000,0,5.000,0
"05/11/08","04:13:28",4280.000,"cc",28370.057,6,0.100,3708.000,0.200,518.000,0.300,48.000,0.500,5.000,1.000,1.000,5.000,0
"05/11/08","04:13:34",5740.000,"cc",28336.986,6,0.100,4978.000,0.200,697.000,0.300,47.000,0.500,18.000,1.000,0,5.000,0
"05/11/08","04:13:40",6689.000,"cc",28283.197,6,0.100,5835.000,0.200,799.000,0.300,47.000,0.500,7.000,1.000,1.000,5.000,0
"05/11/08","04:13:46",15989.000,"cc",28362.125,6,0.100,13996.000,0.200,1898.000,0.300,82.000,0.500,13.000,1.000,0,5.000,0
"05/11/08","04:13:52",13113.000,"cc",28306.947,6,0.100,11513.000,0.200,1513.000,0.300,77.000,0.500,8.000,1.000,2.000,5.000,0
"05/11/08","04:13:58",9905.000,"cc",28283.119,6,0.100,8716.000,0.200,1116.000,0.300,65.000,0.500,8.000,1.000,0,5.000,0
"05/11/08","04:14:04",10744.000,"cc",28293.516,6,0.100,9441.000,0.200,1243.000,0.300,51.000,0.500,9.000,1.000,0,5.000,0
"05/11/08","04:14:10",7547.000,"cc",28348.848,6,0.100,6559.000,0.200,920.000,0.300,63.000,0.500,5.000,1.000,0,5.000,0
"05/11/08","04:14:16",8991.000,"cc",28304.254,6,0.100,7905.000,0.200,1020.000,0.300,63.000,0.500,3.000,1.000,0,5.000,0
"05/11/08","04:14:22",6696.000,"cc",28384.176,6,0.100,5818.000,0.200,803.000,0.300,66.000,0.500,9.000,1.000,0,5.000,0
"05/11/08","04:14:28",4378.000,"cc",28270.297,6,0.100,3805.000,0.200,522.000,0.300,43.000,0.500,6.000,1.000,2.000,5.000,0
"05/11/08","04:14:34",5019.000,"cc",28305.994,6,0.100,4396.000,0.200,567.000,0.300,45.000,0.500,11.000,1.000,0,5.000,0
"05/11/08","04:14:40",6951.000,"cc",28295.359,6,0.100,6058.000,0.200,838.000,0.300,48.000,0.500,6.000,1.000,1.000,5.000,0
"05/11/08","04:14:46",6094.000,"cc",28306.566,6,0.100,5289.000,0.200,749.000,0.300,47.000,0.500,9.000,1.000,0,5.000,0
"05/11/08","04:14:52",7054.000,"cc",28303.854,6,0.100,6100.000,0.200,895.000,0.300,50.000,0.500,8.000,1.000,1.000,5.000,0
"05/11/08","04:14:58",4293.000,"cc",28292.076,6,0.100,3713.000,0.200,532.000,0.300,39.000,0.500,9.000,1.000,0,5.000,0
"05/11/08","04:15:04",3574.000,"cc",28394.645,6,0.100,3089.000,0.200,432.000,0.300,42.000,0.500,11.000,1.000,0,5.000,0
"05/11/08","04:15:10",3390.000,"cc",28304.828,6,0.100,2930.000,0.200,417.000,0.300,32.000,0.500,10.000,1.000,1.000,5.000,0
"05/11/08","04:15:16",2839.000,"cc",28228.955,6,0.100,2450.000,0.200,353.000,0.300,31.000,0.500,5.000,1.000,0,5.000,0
"05/11/08","04:15:22",2639.000,"cc",28321.963,6,0.100,2270.000,0.200,333.000,0.300,29.000,0.500,7.000,1.000,0,5.000,0
"05/11/08","04:15:28",1888.000,"cc",28356.256,6,0.100,1583.000,0.200,253.000,0.300,40.000,0.500,12.000,1.000,0,5.000,0
"05/11/08","04:15:34",2458.000,"cc",28344.174,6,0.100,2095.000,0.200,316.000,0.300,36.000,0.500,11.000,1.000,0,5.000,0
"05/11/08","04:15:40",1964.000,"cc",28323.799,6,0.100,1641.000,0.200,286.000,0.300,30.000,0.500,6.000,1.000,1.000,5.000,0
"05/11/08","04:15:46",2596.000,"cc",28347.943,6,0.100,2223.000,0.200,332.000,0.300,38.000,0.500,3.000,1.000,0,5.000,0
"05/11/08","04:15:52",2470.000,"cc",28290.352,6,0.100,2104.000,0.200,323.000,0.300,38.000,0.500,5.000,1.000,0,5.000,0
"05/11/08","04:15:58",2257.000,"cc",28319.432,6,0.100,1915.000,0.200,296.000,0.300,37.000,0.500,9.000,1.000,0,5.000,0
"05/11/08","04:16:04",2200.000,"cc",28310.658,6,0.100,1826.000,0.200,340.000,0.300,24.000,0.500,10.000,1.000,0,5.000,0
"05/11/08","04:16:10",2808.000,"cc",28335.293,6,0.100,2382.000,0.200,383.000,0.300,35.000,0.500,7.000,1.000,1.000,5.000,0
"05/11/08","04:16:16",3382.000,"cc",28328.982,6,0.100,2921.000,0.200,411.000,0.300,43.000,0.500,5.000,1.000,2.000,5.000,0
"05/11/08","04:16:22",2537.000,"cc",28300.699,6,0.100,2208.000,0.200,297.000,0.300,29.000,0.500,2.000,1.000,1.000,5.000,0
"05/11/08","04:16:28",2394.000,"cc",28279.242,6,0.100,2068.000,0.200,290.000,0.300,32.000,0.500,4.000,1.000,0,5.000,0
"05/11/08","04:16:34",4050.000,"cc",28302.703,6,0.100,3511.000,0.200,489.000,0.300,39.000,0.500,10.000,1.000,1.000,5.000,0
"05/11/08","04:16:40",4159.000,"cc",28320.115,6,0.100,3632.000,0.200,476.000,0.300,45.000,0.500,6.000,1.000,0,5.000,0
"05/11/08","04:16:46",6017.000,"cc",28318.705,6,0.100,5245.000,0.200,701.000,0.300,58.000,0.500,13.000,1.000,0,5.000,0
"05/11/08","04:16:52",5290.000,"cc",28255.523,6,0.100,4604.000,0.200,624.000,0.300,53.000,0.500,9.000,1.000,0,5.000,0
"05/11/08","04:16:58",6350.000,"cc",28367.488,6,0.100,5528.000,0.200,761.000,0.300,51.000,0.500,10.000,1.000,0,5.000,0
"05/11/08","04:17:04",5581.000,"cc",28351.645,6,0.100,4865.000,0.200,663.000,0.300,46.000,0.500,7.000,1.000,0,5.000,0
"05/11/08","04:17:10",6621.000,"cc",28356.061,6,0.100,5758.000,0.200,805.000,0.300,46.000,0.500,12.000,1.000,0,5.000,0
"05/11/08","04:17:16",8196.000,"cc",28289.822,6,0.100,7218.000,0.200,919.000,0.300,54.000,0.500,5.000,1.000,0,5.000,0
"05/11/08","04:17:22",5547.000,"cc",28358.348,6,0.100,4861.000,0.200,646.000,0.300,33.000,0.500,7.000,1.000,0,5.000,0
"05/11/08","04:17:28",9400.000,"cc",28274.277,6,0.100,8202.000,0.200,1136.000,0.300,52.000,0.500,10.000,1.000,0,5.000,0
"05/11/08","04:17:34",14864.000,"cc",28337.568,6,0.100,13067.000,0.200,1718.000,0.300,69.000,0.500,10.000,1.000,0,5.000,0
"05/11/08","04:17:40",15499.000,"cc",28312.320,6,0.100,13669.000,0.200,1738.000,0.300,76.000,0.500,15.000,1.000,1.000,5.000,0
"05/11/08","04:17:46",6474.000,"cc",28315.654,6,0.100,5663.000,0.200,770.000,0.300,37.000,0.500,4.000,1.000,0,5.000,0
"05/11/08","04:17:52",8109.000,"cc",28352.820,6,0.100,7117.000,0.200,922.000,0.300,59.000,0.500,11.000,1.000,0,5.000,0
"05/11/08","04:17:58",9778.000,"cc",28314.297,6,0.100,8563.000,0.200,1139.000,0.300,66.000,0.500,9.000,1.000,1.000,5.000,0
"05/11/08","04:18:04",7570.000,"cc",28309.522,6,0.100,6665.000,0.200,856.000,0.300,44.000,0.500,4.000,1.000,1.000,5.000,0
"05/11/08","04:18:10",8072.000,"cc",28329.557,6,0.100,7103.000,0.200,920.000,0.300,44.000,0.500,5.000,1.000,0,5.000,0
"05/11/08","04:18:16",6815.000,"cc",28314.912,6,0.100,5961.000,0.200,800.000,0.300,44.000,0.500,10.000,1.000,0,5.000,0
"05/11/08","04:18:22",6463.000,"cc",28329.082,6,0.100,5670.000,0.200,740.000,0.300,51.000,0.500,2.000,1.000,0,5.000,0
"05/11/08","04:18:28",11211.000,"cc",28324.018,6,0.100,9859.000,0.200,1276.000,0.300,61.000,0.500,15.000,1.000,0,5.000,0
"05/11/08","04:18:34",9585.000,"cc",28286.316,6,0.100,8471.000,0.200,1041.000,0.300,61.000,0.500,12.000,1.000,0,5.000,0
"05/11/08","04:18:40",12235.000,"cc",28214.195,6,0.100,10739.000,0.200,1413.000,0.300,74.000,0.500,8.000,1.000,1.000,5.000,0
"05/11/08","04:18:46",9034.000,"cc",28300.332,6,0.100,7960.000,0.200,1017.000,0.300,50.000,0.500,7.000,1.000,0,5.000,0